Location: Unspecified
(48.5670°N, 0.0000°E)
Time: 07:39:59
(UTC+00:00)

Transit 4A - Pass Details

Date: 30 August 2019
Orbit: 865 x 980 km, 66.8° (Epoch: 21 September)

Event Time Altitude Azimuth Distance (km) Brightness Sun altitude
Rises 22:45:40 0° 323° (NW) 3,658 12.1 -30.3°
Reaches altitude 10° 22:48:47 10° 336° (NNW) 2,693 11.2 -30.5°
Maximum altitude 22:53:50 25° 30° (NNE) 1,816 9.7 -30.7°
Enters shadow 22:56:52 17° 69° (ENE) 2,152 9.8 -30.9°
